Location: B�rgermoos
(47.6500°N, 9.0667°E)
Time: 07:38:54
(UTC+00:00)

Vanguard 3 - Pass Details

Date: 07 August 2021
Orbit: 510 x 3260 km, 33.3° (Epoch: 16 September)

Event Time Altitude Azimuth Distance (km) Brightness Sun altitude
Rises 19:22:38 0° 266° (W) 5,801 12.5 -5.8°
Reaches altitude 10° 19:26:16 10° 260° (W) 5,114 12.0 -6.3°
Maximum altitude 19:40:53 43° 197° (SSW) 3,914 10.5 -8.3°
Enters shadow 19:58:01 11° 136° (SE) 6,008 10.9 -10.6°
